[[{"header":{"parameterUnit":"m.s-1","parameterCategory":1,"la1":30.2991,"la2":30.254,"lo1":-89.0895,"lo2":-89.0444,"dy":0.0017,"dx":0.0017,"nx":28,"ny":28,"refTime":"2025-04-23T21:00:00:Z","depth":0,"parameterNumber":2,"parameterNumberName":"U-component_of_WINDS"},"data":[0,0,0,0,0,0,0,0,0,0,0,0,0,0,0,0,0,0,0,0,0,0,0,0,0,0,0,0,0,0,0,0,0,0,0,0,0,0,0,0,0,0,0,0,0,0,0,0,0,0,0,0,0,0,0,0,0,0,-3.3648,-3.3649,0,-3.3708,-3.3709,-3.3709,-3.3659,-3.3657,-3.3655,-3.3653,-3.3712,-3.3716,-3.3719,0,0,0,0,0,0,0,0,0,0,0,0,0,-3.349,-3.3494,-3.3648,-3.3649,-3.365,-3.3708,-3.3709,-3.371,-3.3659,-3.3657,-3.3654,-3.3652,-3.3711,-3.3715,-3.372,0,0,0,0,0,0,0,0,0,0,0,0,0,-3.3556,-3.3495,-3.3648,-3.3632,-3.3631,-3.3708,-3.3709,-3.371,-3.366,-3.3657,-3.3653,-3.365,-3.371,-3.3715,-3.372,-3.3816,0,0,-3.3736,-3.3739,0,0,0,0,0,0,0,0,-3.3552,-3.3561,-3.3633,-3.3633,-3.3632,-3.3673,-3.3675,-3.3745,-3.3661,-3.3649,-3.3653,-3.3649,-3.3702,-3.3707,-3.3725,-3.3819,-3.3821,-3.3737,-3.374,-3.3742,-3.3744,0,0,0,0,0,0,0,-3.3547,-3.3558,-3.3672,-3.3634,-3.3634,-3.3621,-3.3627,-3.3688,-3.3692,-3.3649,-3.3646,-3.3654,-3.3701,-3.3721,-3.3727,-3.3822,-3.3737,-3.3741,-3.3745,-3.3747,-3.3999,-3.4002,0,0,0,0,0,0,-3.3545,-3.3555,-3.367,-3.3674,-3.3583,-3.3627,-3.3633,-3.3663,-3.3691,-3.3693,-3.3656,-3.3651,-3.3713,-3.372,-3.3728,-3.3843,-3.3742,-3.3747,-3.375,-3.3996,-3.4,-3.4004,0,0,0,0,0,0,-3.3542,-3.3555,-3.3667,-3.3614,-3.3627,-3.3633,-3.3667,-3.3666,-3.3685,-3.3697,-3.3697,-3.3676,-3.3711,-3.3721,-3.3795,-3.3844,-3.375,-3.3755,-3.3992,-3.3997,-3.4002,-3.4073,0,0,0,0,0,0,-3.3537,-3.3555,-3.3591,-3.3615,-3.363,-3.3733,-3.367,-3.3669,-3.3695,-3.3689,-3.3715,-3.3716,-3.3709,-3.3788,-3.38,-3.385,-3.3759,-3.3987,-3.3994,-3.4,-3.4066,-3.408,-3.4092,0,0,0,0,0,-3.3532,-3.3608,-3.3593,-3.3607,-3.3675,-3.3736,-3.3745,-3.3735,-3.3699,-3.3736,-3.3743,-3.3715,-3.3838,-3.3796,-3.381,-3.3862,-3.3984,-3.3992,-3.4,-3.406,-3.4077,-3.4091,0,0,0,0,0,0,-3.3588,-3.361,-3.3594,-3.368,-3.3707,-3.3727,-3.3773,-3.3753,-3.379,-3.3783,-3.3769,-3.3776,-3.3854,-3.3865,-3.3818,-3.3957,-3.3905,-3.3916,-3.3946,-3.3962,-3.3975,-3.397,-3.3763,0,0,0,0,0,-3.3611,-3.3659,-3.3675,-3.375,-3.3764,-3.3767,-3.3793,-3.3784,-3.381,-3.3821,-3.3834,-3.3861,-3.3905,-3.3935,-3.3976,-3.4068,-3.4074,-3.4111,-3.4124,-3.4135,-3.4144,-3.4194,-3.4212,-3.403,-3.403,-3.4029,0,0,-3.3657,-3.3676,-3.3706,-3.3762,-3.3781,-3.3831,-3.3776,-3.3831,-3.3868,-3.3829,-3.39,-3.3911,-3.394,-3.4024,-3.4062,-3.4036,-3.4196,-3.4145,-3.4153,-3.4156,-3.4204,-3.4222,-3.4237,-3.4035,-3.4034,-3.4033,0,0,-3.3768,-3.3787,-3.3851,-3.3872,-3.3903,-3.3905,-3.3921,-3.3945,-3.3951,-3.4023,-3.3995,-3.4039,-3.4116,-3.4138,-3.416,-3.4282,-3.4258,-3.4296,-3.4362,-3.4412,-3.4426,-3.4439,-3.4483,-3.4499,-3.4306,-3.4306,-3.4306,0,-3.3821,-3.3896,-3.3886,-3.3944,-3.3969,-3.3939,-3.4004,-3.4025,-3.4068,-3.4086,-3.4057,-3.4154,-3.4171,-3.4261,-3.4291,-3.431,-3.4327,-3.4292,-3.4425,-3.4438,-3.4449,-3.4491,-3.4507,-3.4311,-3.431,-3.431,-3.4309,0,-3.3961,-3.4013,-3.4061,-3.4105,-3.4136,-3.4197,-3.4197,-3.423,-3.4219,-3.4224,-3.4298,-3.4319,-3.4364,-3.4385,-3.4374,-3.4474,-3.4457,-3.4427,-3.4374,-3.4471,-3.451,-3.4526,-3.4317,-3.4315,-3.4314,-3.4313,0,0,-3.4105,-3.4145,-3.4163,-3.4183,-3.4216,-3.4256,-3.4317,-3.4362,-3.4391,-3.4423,-3.4473,-3.454,-3.4514,-3.4538,-3.453,-3.4574,-3.467,-3.4539,-3.4539,-3.4562,-3.4781,-3.4803,-3.4821,-3.4655,-3.4658,-3.4661,-3.4779,0,-3.4217,-3.4322,-3.4317,-3.4415,-3.4464,-3.4437,-3.449,-3.4517,-3.4524,-3.4566,-3.4574,-3.4622,-3.4583,-3.4598,-3.464,-3.4649,-3.4714,-3.4641,-3.4702,-3.4704,-3.4694,-3.4841,-3.4864,-3.4974,-3.4794,-3.4796,-3.4798,0,-3.436,-3.4398,-3.4502,-3.453,-3.455,-3.4597,-3.464,-3.4681,-3.4711,-3.4713,-3.4743,-3.4728,-3.479,-3.4738,-3.4823,-3.4773,-3.4798,-3.4807,-3.4811,-3.4815,-3.4756,-3.4849,-3.5008,-3.5025,-3.4822,-3.482,-3.4818,0,-3.4455,-3.4532,-3.4604,-3.4622,-3.4657,-3.4691,-3.4707,-3.4734,-3.4763,-3.48,-3.4819,-3.4863,-3.4887,-3.4921,-3.492,-3.4881,-3.5006,-3.4953,-3.501,-3.501,-3.5035,-3.5033,-3.5201,-3.5054,-3.5053,-3.5053,-3.5053,0,-3.4579,-3.4643,-3.4647,-3.4692,-3.4764,-3.4758,-3.483,-3.4842,-3.4867,-3.4914,-3.4894,-3.4938,-3.4933,-3.4978,-3.4978,-3.5048,-3.5059,-3.5063,-3.5062,-3.5064,-3.5064,-3.5079,-3.5071,-3.5057,-3.5057,-3.5056,-3.5055,0,-3.4696,-3.4701,-3.4778,-3.4806,-3.4814,-3.4866,-3.489,-3.4932,-3.4939,-3.4998,-3.5012,-3.5022,-3.5074,-3.5077,-3.5136,-3.5136,-3.5222,-3.5213,-3.5212,-3.521,-3.5266,-3.526,-3.5448,-3.5472,-3.531,-3.5312,-3.5313,0,-3.4774,-3.4823,-3.4857,-3.4887,-3.4906,-3.4954,-3.4984,-3.4981,-3.5013,-3.5053,-3.509,-3.5141,-3.5181,-3.5265,-3.5278,-3.5324,-3.5315,-3.5378,-3.5321,-3.5323,-3.5315,-3.5312,-3.5317,-3.5388,-3.539,-3.5391,-3.5392,0,-3.4912,-3.4913,-3.4957,-3.5003,-3.5039,-3.5074,-3.5107,-3.5133,-3.5134,-3.5171,-3.5225,-3.5256,-3.5318,-3.5368,-3.5414,-3.543,-3.5412,-3.5411,-3.5426,-3.5428,-3.5425,-3.5427,-3.5241,-3.5406,-3.5404,-3.5403,-3.5403,-3.5402,-3.5012,-3.5055,-3.5086,-3.5136,-3.5161,-3.5193,-3.5234,-3.5247,-3.5292,-3.5343,-3.5339,-3.5398,-3.5429,-3.5488,-3.5509,-3.5555,-3.5534,-3.5556,-3.5562,-3.5567,-3.5573,-3.5419,-3.5564,-3.5563,-3.5563,-3.5563,-3.5562,0,-3.5149,-3.5168,-3.5214,-3.5262,-3.5302,-3.5283,-3.5319,-3.5353,-3.5406,-3.5437,-3.5477,-3.554,-3.5589,-3.5607,-3.5655,-3.5689,-3.5682,-3.5702,-3.5699,-3.5703,-3.5589,-3.5571,-3.5707,-3.5707,-3.5707,-3.5707,-3.5707,-3.5707,-3.5224,-3.5297,-3.5302,-3.5387,-3.5406,-3.5464,-3.5487,-3.5516,-3.5541,-3.5612,-3.5653,-3.5665,-3.5691,-3.5742,-3.5787,-3.5791,-3.5809,-3.5832,-3.5833,-3.5726,-3.5711,-3.5697,-3.568,-3.5837,-3.5837,-3.5943,-3.5944,-3.5944]},{"header":{"parameterUnit":"m.s-1","parameterCategory":1,"la1":30.2991,"la2":30.254,"lo1":-89.0895,"lo2":-89.0444,"dy":0.0017,"dx":0.0017,"nx":28,"ny":28,"refTime":"2025-04-23T21:00:00:Z","depth":0,"parameterNumber":3,"parameterNumberName":"V-component_of_WINDS"},"data":[0,0,0,0,0,0,0,0,0,0,0,0,0,0,0,0,0,0,0,0,0,0,0,0,0,0,0,0,0,0,0,0,0,0,0,0,0,0,0,0,0,0,0,0,0,0,0,0,0,0,0,0,0,0,0,0,0,0,2.3686,2.3686,0,2.3723,2.3723,2.3724,2.375,2.375,2.3751,2.3751,2.3788,2.3789,2.379,0,0,0,0,0,0,0,0,0,0,0,0,0,2.3637,2.3638,2.3686,2.3686,2.3686,2.3723,2.3723,2.3724,2.375,2.375,2.3751,2.3751,2.3788,2.3789,2.379,0,0,0,0,0,0,0,0,0,0,0,0,0,2.3665,2.3638,2.3685,2.3704,2.3706,2.3723,2.3723,2.3724,2.375,2.375,2.3751,2.3751,2.3788,2.3789,2.379,2.3791,0,0,2.3794,2.3794,0,0,0,0,0,0,0,0,2.3663,2.3667,2.3701,2.3703,2.3705,2.3732,2.372,2.3746,2.375,2.3733,2.3751,2.3751,2.3769,2.3772,2.3778,2.3793,2.3795,2.3794,2.3795,2.3795,2.3795,0,0,0,0,0,0,0,2.3661,2.3665,2.37,2.3701,2.3704,2.3711,2.3715,2.3725,2.3749,2.3735,2.3737,2.3741,2.3771,2.3777,2.3779,2.3795,2.3794,2.3795,2.3796,2.3796,2.3814,2.3814,0,0,0,0,0,0,2.3657,2.3663,2.3699,2.3701,2.3685,2.3711,2.3716,2.3723,2.3749,2.3753,2.3741,2.3742,2.3775,2.3778,2.3781,2.3785,2.3795,2.3796,2.3797,2.3814,2.3814,2.3814,0,0,0,0,0,0,2.3655,2.366,2.3698,2.3683,2.3688,2.3712,2.372,2.3724,2.373,2.3753,2.3758,2.3743,2.3775,2.3779,2.3789,2.3787,2.3797,2.3798,2.3815,2.3814,2.3814,2.3792,0,0,0,0,0,0,2.3654,2.3659,2.3659,2.3683,2.3689,2.3705,2.3719,2.3724,2.3732,2.3735,2.3757,2.3761,2.3776,2.3787,2.379,2.3788,2.3799,2.3815,2.3815,2.3814,2.3793,2.3791,2.3789,0,0,0,0,0,2.3652,2.3651,2.3659,2.3663,2.369,2.3704,2.3708,2.3726,2.3732,2.3733,2.3748,2.376,2.3786,2.3788,2.3791,2.379,2.3815,2.3815,2.3814,2.3794,2.3791,2.3789,0,0,0,0,0,0,2.3626,2.3655,2.3664,2.367,2.3685,2.3709,2.371,2.3722,2.3735,2.3736,2.3758,2.3762,2.377,2.3781,2.3782,2.3793,2.3802,2.3803,2.3786,2.3784,2.3782,2.3779,2.38,0,0,0,0,0,2.3621,2.3631,2.3655,2.3658,2.3665,2.3687,2.3693,2.3706,2.3722,2.3728,2.3744,2.3759,2.377,2.3778,2.379,2.3795,2.3801,2.3796,2.3794,2.3792,2.3792,2.3797,2.3796,2.3812,2.3812,2.3812,0,0,2.3611,2.3628,2.3632,2.3654,2.3666,2.3676,2.3692,2.3701,2.3708,2.3729,2.374,2.3752,2.377,2.3778,2.3782,2.3787,2.3789,2.3792,2.379,2.3791,2.3797,2.3795,2.3794,2.3812,2.3812,2.3812,0,0,2.3598,2.3611,2.3616,2.3629,2.3648,2.3662,2.3664,2.3686,2.3695,2.3706,2.3723,2.3732,2.3752,2.3764,2.3773,2.3766,2.3778,2.377,2.3759,2.3764,2.3763,2.3762,2.376,2.3759,2.377,2.3769,2.3769,0,2.3583,2.3598,2.3617,2.3626,2.3635,2.3655,2.3661,2.3672,2.3694,2.3701,2.3706,2.3732,2.3746,2.3757,2.3756,2.3762,2.3765,2.3767,2.3761,2.3761,2.376,2.3759,2.3758,2.3768,2.3768,2.3769,2.3769,0,2.3578,2.3589,2.359,2.3612,2.3622,2.3628,2.3649,2.3657,2.3669,2.3683,2.3694,2.3712,2.3728,2.3732,2.3743,2.3746,2.3749,2.3757,2.3767,2.3757,2.3756,2.3756,2.3767,2.3767,2.3767,2.3768,0,0,2.3549,2.3582,2.3582,2.3593,2.3617,2.3625,2.3633,2.365,2.3656,2.3671,2.3679,2.3696,2.3705,2.3715,2.3729,2.3733,2.3727,2.3742,2.3742,2.3739,2.3732,2.3726,2.3725,2.3736,2.3736,2.3736,2.3731,0,2.3539,2.3555,2.3574,2.3584,2.3594,2.3614,2.3622,2.3637,2.3651,2.3662,2.3677,2.3689,2.3699,2.3706,2.3711,2.3727,2.3727,2.3728,2.3744,2.3744,2.3739,2.3724,2.3717,2.3712,2.3731,2.3731,2.3731,0,2.353,2.3545,2.3556,2.358,2.3585,2.3591,2.3609,2.3619,2.3637,2.3647,2.3659,2.3674,2.3684,2.3693,2.3708,2.3708,2.3716,2.3725,2.3726,2.3728,2.3737,2.3726,2.371,2.371,2.373,2.373,2.373,0,2.3508,2.3531,2.3541,2.3549,2.3577,2.3581,2.3593,2.3612,2.3621,2.3636,2.3643,2.3659,2.3668,2.3681,2.3699,2.3704,2.3713,2.3723,2.3722,2.3722,2.3723,2.3723,2.3708,2.3727,2.3728,2.3728,2.3728,0,2.3496,2.3502,2.3531,2.3537,2.3545,2.3567,2.3574,2.3588,2.3605,2.3614,2.3633,2.3641,2.3666,2.3677,2.3692,2.3703,2.3707,2.3716,2.372,2.3714,2.3713,2.372,2.372,2.3727,2.3727,2.3727,2.3727,0,2.3473,2.3492,2.3505,2.3531,2.3537,2.3542,2.3564,2.3571,2.3587,2.3599,2.3603,2.3626,2.3641,2.3662,2.3683,2.3693,2.3702,2.3708,2.3696,2.3698,2.3696,2.3697,2.3686,2.3686,2.3705,2.3704,2.3704,0,2.3463,2.3469,2.3496,2.3503,2.3515,2.3527,2.3537,2.3559,2.3568,2.3591,2.3595,2.3612,2.3626,2.3649,2.3668,2.3685,2.3692,2.3687,2.3694,2.3689,2.3692,2.3692,2.3693,2.3685,2.3685,2.3684,2.3684,0,2.3445,2.3455,2.3469,2.3486,2.3498,2.3512,2.3528,2.3533,2.3558,2.3568,2.3584,2.3595,2.3617,2.3634,2.3653,2.3666,2.368,2.3682,2.3683,2.3677,2.367,2.3675,2.3691,2.3682,2.3682,2.3682,2.3683,2.3683,2.3429,2.3436,2.3456,2.3471,2.3485,2.3499,2.3507,2.3524,2.3537,2.3557,2.3569,2.3585,2.3605,2.3632,2.3645,2.3657,2.3663,2.3664,2.3664,2.3664,2.3662,2.3668,2.3661,2.3661,2.3661,2.3661,2.3661,0,2.3413,2.3427,2.3441,2.3462,2.3474,2.3486,2.3504,2.3514,2.3527,2.3544,2.3558,2.3577,2.3594,2.3615,2.3633,2.3639,2.3646,2.3643,2.3643,2.3646,2.3656,2.3654,2.3638,2.3638,2.3638,2.3638,2.3638,2.3638,2.3406,2.3417,2.343,2.3449,2.3463,2.3478,2.3488,2.3502,2.3516,2.3536,2.355,2.3564,2.3583,2.3603,2.3619,2.3625,2.3631,2.3626,2.3634,2.3643,2.3645,2.3647,2.3645,2.3627,2.3627,2.3623,2.3623,2.3623]}]]